Zurück zum Katalog

STARLINK-36266

AktivKommunikationSSO
NORAD 67984·PAYLOAD·🇺🇸 United States

Gestartet Feb 25, 2026 von Vandenberg Space Force Base

Loading…

Nächste Überflüge (nächste 24 Stunden)

TLE

AktuellSource: CelesTrak SupGP

Epoche: Sep 14, 2026, 21:26 UTC

1 67984C 26038Z   26257.89354167  .00044501  00000+0  13816-2 0  2579
2 67984  97.2842 266.3876 0001567  90.3105 103.0205 15.33412417    16

Verfolge STARLINK-36266 in Echtzeit mit AllMySat

Download on the App Store